Regional Weather Roundup
Issued by NWS

Home | Current Version | Previous Version | Graphics & Text | Print | Product List | Glossary On
Versions: 1 2 3 4 5 6 7 8 9 10 11 12 13 14 15 16 17 18 19 20 21 22 23 24 25 26 27 28 29 30 31 32 33 34 35 36 37 38 39 40 41 42 43 44 45 46 47 48 49 50
952
ASUS44 KLIX 280805
RWRLA
LOUISIANA WEATHER ROUNDUP
NATIONAL WEATHER SERVICE NEW ORLEANS LA
200 AM CST SAT FEB 28 2015

NOTE: "FAIR" INDICATES FEW OR NO CLOUDS BELOW 12,000 FEET WITH NO
      SIGNIFICANT WEATHER AND/OR OBSTRUCTIONS TO VISIBILITY.
      SKY/WX - SKY CONDITION AND SIGNIFICANT WEATHER.
      TMP - AIR TEMPERATURE.    DP   - DEWPOINT TEMPERATURE.
      RH  - RELATIVE HUMIDITY.  PRES - PRESSURE.
      HX  - HEAT INDEX.         WCI  - WIND CHILL INDEX.

*  THESE STATIONS ARE NOT NWS OR FAA STATIONS AND ARE NOT UNDER
   NWS QUALITY CONTROL.

LAZ040-048-061>063-065-066-069-280900-
SOUTHEAST LOUISIANA

CITY           SKY/WX    TMP DP  RH WIND       PRES   REMARKS
N.O. AUDUBON     N/A     44  33  64 MISG        N/A
N.O. INTL ARPT MOCLDY    44  30  57 NE10      30.38F
N.O. LAKEFRONT PTCLDY    46  32  58 NE18      30.39S
SLIDELL        CLEAR     37  31  78 N6        30.39S WCI  32
BATON ROUGE    CLEAR     34  29  82 N5        30.41S WCI  30
BOOTHVILLE     PTCLDY    50  41  71 NE12G18   30.34F
BELLE CHASSE   MOCLDY    44  30  57 NE7       30.38S
BOGALUSA*        N/A     37  29  72 N6        30.42F WCI  32
GALLIANO*      MOSUNNY   45  38  76 N5        30.36F
NEW ROADS*     FAIR      32  27  83 N5        30.42F WCI  27
GONZALES*      FAIR      38  31  77 N5        30.39F WCI  34
HAMMOND*       CLEAR     37  30  75 CALM      30.41F
HOUMA*         CLEAR     39  34  81 N7        30.38R WCI  34
PORT FOURCHON* SUNNY     46  39  76 N12       30.37F

$$

LAZ041-044-053-054-280900-
SOUTHWEST LOUISIANA

CITY           SKY/WX    TMP DP  RH WIND       PRES   REMARKS
LAKE CHARLES   CLOUDY    35  28  75 NE18      30.36F WCI  24
LAFAYETTE      CLEAR     33  28  81 NE8       30.40F WCI  26
PATTERSON      CLOUDY    41  32  70 NE8       30.38F
SALT POINT       N/A     40  34  79 N6        30.35F
NEW IBERIA     CLEAR     36  29  75 NE13      30.40F WCI  27
CHENAULT AIRPK CLOUDY    34  28  79 NE14G24   30.36F WCI  25

$$

LAZ027-028-280900-
CENTRAL LOUISIANA

CITY           SKY/WX    TMP DP  RH WIND       PRES   REMARKS
FORT POLK      CLEAR     32  26  78 NE7       30.38F WCI  25
ALEXANDRIA INT CLOUDY    32  25  75 E6        30.42F WCI  26
ALEXANDRIA     CLEAR     33  25  72 CALM      30.43F

$$

LAZ001-002-280900-
NORTHWEST LOUISIANA

CITY           SKY/WX    TMP DP  RH WIND       PRES   REMARKS
SHREVEPORT     CLOUDY    32  23  69 E9        30.42F WCI  24
BARKSDALE AFB  CLOUDY    31  22  67 E6        30.44F WCI  26
DTN SHREVEPORT CLOUDY    31  21  66 E6        30.44F WCI  25

$$

LAZ014-016-280900-
NORTHEAST LOUISIANA

CITY           SKY/WX    TMP DP  RH WIND       PRES   REMARKS
MONROE         CLOUDY    32  26  78 N9        30.48F WCI  24
TALLULAH       CLOUDY    34  27  75 N6        30.47S WCI  29

$$




USA.gov is the U.S. government's official web portal to all federal, state and local government web resources and services.